Theta_e
307 306 306 306 306 306 306 306 306 307 307 307 308 308 308 308 308 308 308 309 308 309 310 310 311 311 312 316 319 320 319 320 317 314 313 315 319 318 318 314 314 314 314 313 313 337 341
307 306 306 306 307 307 307 307 308 308 308 308 308 308 308 308 308 308 308 309 308 309 310 313 313 311 320 319 321 324 320 315 316 314 315 315 319 316 318 316 316 316 316 315 315 338 342
306 306 306 307 307 307 308 308 308 308 309 309 309 309 309 308 308 308 308 309 309 309 310 314 313 312 317 314 320 321 318 313 314 316 315 317 318 317 315 317 316 318 318 317 333 338 340
306 306 306 306 306 306 306 307 307 307 307 308 309 309 309 309 309 308 309 309 310 309 310 314 312 316 315 318 319 322 318 318 318 316 318 319 318 315 317 317 317 319 315 317 319 338 340
306 305 305 305 305 305 305 305 306 306 306 307 307 308 309 309 309 309 308 309 310 309 312 313 313 316 319 322 323 324 322 320 319 319 318 319 317 315 316 317 316 313 318 318 318 317 336
305 305 305 305 305 304 304 304 305 304 305 305 305 307 308 309 309 309 308 310 311 312 315 315 318 317 318 323 321 321 323 322 318 318 317 318 312 314 311 314 318 318 318 318 318 323 341
305 305 304 303 302 302 302 301 301 302 302 303 303 305 306 308 309 309 309 311 313 319 320 316 316 317 319 320 322 319 320 318 317 316 317 316 315 316 316 316 318 318 318 317 332 340 342
302 301 300 299 298 297 297 298 298 298 299 300 301 302 304 307 308 309 310 307 313 315 312 315 319 319 319 319 321 320 318 317 317 316 316 314 315 316 316 317 317 317 317 318 339 340 341
301 299 298 296 296 296 296 296 296 297 298 298 299 302 303 306 308 313 309 313 314 316 310 314 318 320 320 320 321 321 315 316 317 317 316 315 316 317 319 318 317 318 321 320 336 340 339
302 302 300 297 296 296 296 296 296 296 297 297 298 301 303 305 309 309 310 314 316 313 315 319 320 320 321 320 319 320 316 316 316 315 315 315 316 317 319 319 316 320 321 322 339 341 345
301 301 302 299 297 296 296 297 296 296 296 297 298 301 304 305 308 309 311 312 316 314 320 325 321 320 318 320 319 319 316 316 316 318 320 320 320 319 319 320 318 320 319 319 318 317 317
302 301 302 301 300 298 296 297 297 296 296 297 298 301 305 307 308 309 312 316 317 319 324 325 321 321 318 317 318 317 317 317 317 319 320 318 319 319 319 317 318 318 318 316 314 312 316
301 301 301 301 301 300 297 297 298 296 296 297 299 302 305 305 309 315 315 314 317 321 321 327 318 317 318 316 317 317 317 317 316 320 323 323 323 320 319 319 316 315 315 318 320 318 320
300 299 301 301 300 299 297 297 298 297 296 297 300 304 309 309 310 312 315 314 320 320 322 323 317 316 317 316 316 317 317 317 317 320 323 324 320 321 320 318 318 316 314 318 323 320 319
300 300 300 301 300 300 299 298 298 298 296 297 302 309 311 316 316 312 312 315 316 319 323 325 322 317 317 317 318 318 317 318 318 319 321 323 324 321 320 318 318 317 313 314 314 315 316
300 300 300 301 300 299 299 298 299 298 296 299 306 310 315 321 319 315 313 316 318 321 324 325 326 319 317 319 318 318 318 320 322 320 320 322 324 323 324 321 320 318 313 317 312 319 321
299 299 300 300 300 300 299 298 299 299 298 300 307 313 318 321 317 313 314 316 320 322 323 325 326 325 325 326 320 317 319 323 322 320 319 318 319 322 323 322 322 319 317 313 312 317 319
299 299 299 300 300 300 299 298 299 300 301 302 302 312 317 318 315 313 317 319 320 322 322 323 322 324 324 324 326 327 326 324 322 321 323 322 319 324 325 321 321 318 318 313 316 316 320
299 299 299 299 299 300 299 299 298 300 302 304 301 305 316 316 316 315 316 322 323 324 326 326 320 321 321 322 326 326 324 324 324 324 323 320 319 320 319 319 321 323 321 316 313 313 318
297 298 298 299 300 300 299 299 298 299 302 305 304 317 312 310 311 317 317 319 325 325 327 325 321 323 323 324 323 325 324 322 321 325 329 323 318 318 321 318 321 324 324 318 316 316 317
298 298 298 298 299 299 299 298 298 299 301 307 307 315 313 315 315 315 315 318 324 324 322 319 320 322 322 324 324 324 323 322 319 321 321 316 322 323 322 323 322 322 322 322 318 316 318
297 298 298 298 298 298 299 298 299 299 300 307 307 309 308 313 312 313 313 317 320 321 320 319 323 324 321 322 322 324 321 320 319 320 321 316 321 323 322 324 324 324 323 322 319 319 324
297 297 297 298 298 298 298 299 299 300 301 301 303 304 307 311 313 314 316 316 319 319 320 320 325 324 325 325 323 319 318 317 318 320 320 319 321 319 319 324 322 322 321 319 318 318 322
296 295 297 297 298 298 298 299 299 299 300 300 301 302 306 312 314 316 316 315 316 317 321 320 325 324 324 321 317 317 317 318 319 318 319 320 320 318 322 321 323 317 319 318 318 319 319
297 297 297 297 296 297 298 298 299 299 300 301 302 301 307 311 313 313 315 314 314 313 316 319 325 322 318 319 319 320 320 322 322 323 322 320 320 319 321 320 320 322 321 316 316 320 319
297 297 297 296 296 297 297 298 299 299 299 300 301 302 305 310 308 312 312 312 313 314 314 317 318 314 319 319 321 322 324 323 325 326 321 319 317 320 318 323 326 321 319 316 314 316 317
296 297 297 297 297 297 297 298 298 299 299 299 300 301 302 310 308 308 310 311 310 310 312 313 313 317 317 319 323 322 323 322 326 326 325 322 320 320 315 317 320 318 319 316 321 319 315
296 296 296 297 297 297 297 298 298 299 299 299 299 301 301 304 303 305 306 306 307 308 312 311 315 317 316 320 320 320 320 320 321 323 322 323 322 321 319 321 324 319 318 319 315 315 314
296 296 296 296 296 297 297 298 297 297 298 298 298 299 299 300 301 303 304 304 306 307 306 305 311 313 321 317 316 316 319 317 316 321 320 323 319 320 319 320 317 317 315 315 313 314 313
Wind_Speed
24 24 25 25 25 25 26 26 26 26 27 27 27 28 27 27 25 23 20 14 11 10 10 10 9 8 6 3 8 5 3 6 12 9 4 4 2 3 2 2 1 4 6 6 8 10 6
23 24 25 25 25 26 27 27 27 28 28 28 29 29 29 28 27 25 23 16 11 10 9 8 6 4 1 3 4 6 6 8 9 11 4 7 5 5 3 3 4 3 5 6 9 10 12
23 24 25 25 26 26 27 27 28 29 29 29 29 30 30 28 28 27 25 20 11 9 8 7 4 2 2 11 4 4 8 6 13 10 4 8 4 4 4 4 3 4 4 3 11 6 7
23 24 25 26 27 28 28 28 29 29 30 30 30 30 30 30 29 28 26 22 11 7 6 4 5 2 7 4 6 9 13 11 10 13 15 16 8 4 3 2 7 3 4 3 6 10 6
24 25 26 26 27 28 29 29 30 30 31 30 31 30 31 31 31 30 27 20 10 5 3 3 4 2 9 9 7 17 19 11 4 9 13 14 1 1 6 4 5 6 2 3 4 9 7
23 25 26 27 28 29 30 30 30 31 32 32 33 31 32 31 31 32 28 15 3 1 5 3 1 3 7 3 5 7 16 20 7 2 4 3 5 3 4 4 3 2 4 4 5 2 7
23 24 25 27 28 29 30 31 32 32 33 33 33 33 33 31 30 33 23 1 2 1 3 8 6 4 4 5 5 5 13 7 4 6 1 3 4 4 7 5 3 2 2 6 7 6 9
24 25 25 26 27 29 30 31 32 34 34 34 34 34 33 32 34 26 5 0 1 3 7 10 10 7 17 3 5 6 5 5 3 3 1 5 5 10 5 5 6 3 4 4 10 11 12
24 24 25 26 27 29 30 32 33 34 35 35 35 35 34 32 30 1 12 6 5 14 1 7 6 5 6 10 7 9 8 3 3 1 3 5 9 3 2 2 4 2 2 1 7 14 15
24 25 25 27 27 29 30 32 33 35 36 36 35 35 35 34 5 12 10 2 18 7 4 6 4 7 5 5 5 9 14 6 1 7 4 6 5 6 3 3 5 4 3 9 12 7 6
24 24 26 27 28 29 31 34 34 36 37 38 37 36 33 26 17 5 2 15 10 3 3 2 3 4 5 8 3 4 7 5 5 4 3 7 4 7 5 1 4 3 3 2 4 4 5
24 26 26 28 28 30 32 35 37 37 39 40 38 36 35 11 10 16 8 16 5 5 6 4 6 5 6 3 3 2 3 3 3 2 1 6 4 3 5 3 4 4 5 8 5 3 2
24 26 27 28 29 31 33 36 38 39 41 42 41 37 30 17 6 1 12 3 4 3 5 3 5 5 6 5 3 4 5 4 4 3 2 4 3 2 3 5 5 9 7 3 4 4 5
24 25 27 29 31 33 33 36 39 41 43 45 42 35 17 19 5 12 3 5 3 4 6 5 2 5 8 6 5 5 4 3 3 4 2 3 4 3 1 4 4 4 6 5 4 3 4
23 25 27 29 33 35 35 36 40 42 44 46 40 18 10 4 11 12 5 3 7 6 3 6 4 5 5 5 7 5 8 6 8 8 6 4 2 3 5 3 4 3 3 3 6 3 3
24 24 26 29 35 37 37 37 41 43 45 39 27 12 7 1 15 8 4 6 5 4 5 3 2 4 6 1 5 5 8 4 4 6 5 6 4 2 3 6 6 4 5 3 3 2 3
23 24 26 29 33 37 37 37 40 43 46 34 7 4 10 12 9 5 3 6 5 4 5 3 4 2 2 3 5 7 8 2 3 4 1 5 5 4 3 2 4 2 2 6 4 4 4
24 25 25 28 31 35 38 37 39 42 44 27 9 2 3 5 3 1 3 5 3 7 2 5 4 4 4 2 2 3 5 2 4 7 6 1 5 3 2 5 4 3 4 5 5 4 1
23 24 25 27 29 33 37 37 37 40 35 13 3 3 5 3 2 2 5 4 5 5 5 4 3 2 1 2 3 2 3 4 5 4 7 6 2 3 6 6 5 2 2 4 5 3 5
21 23 23 26 28 31 35 37 36 39 30 3 2 4 4 4 2 3 3 5 4 4 5 6 6 3 3 1 2 3 3 6 5 4 8 8 3 6 7 5 3 3 2 4 5 3 4
22 23 25 24 26 29 33 35 37 39 26 6 2 2 1 3 3 4 2 5 6 6 5 7 2 2 4 3 2 4 3 3 6 5 5 5 4 2 2 3 2 3 5 2 7 6 6
22 22 23 24 25 27 29 32 35 36 25 6 3 3 5 3 4 4 5 5 4 5 3 5 2 2 3 5 6 7 7 2 5 3 3 4 2 2 1 1 1 3 6 7 5 4 2
20 21 23 23 24 25 26 28 31 30 26 8 8 5 1 4 5 2 2 5 4 7 7 5 3 3 3 3 4 8 6 6 9 8 3 4 5 3 3 4 4 5 6 4 3 4 7
18 19 20 21 21 23 23 24 25 26 23 9 4 4 2 4 3 2 4 5 7 6 5 7 2 3 2 2 3 8 9 8 8 6 4 5 5 3 2 3 1 7 5 4 6 3 2
18 18 18 19 21 21 22 22 22 22 21 18 5 3 2 4 3 7 8 4 10 6 3 4 5 3 3 6 5 6 6 4 3 6 3 3 5 3 4 3 5 5 3 5 4 2 3
17 18 18 18 19 20 20 20 20 20 20 19 3 10 3 3 3 3 4 4 3 4 7 5 4 7 4 3 3 4 5 6 4 3 5 6 6 5 3 4 5 6 5 2 5 3 7
17 17 17 17 17 19 19 18 17 17 18 17 5 14 4 3 3 3 2 3 3 2 3 5 8 8 4 2 1 2 3 5 5 8 5 3 3 5 3 2 6 7 6 1 4 6 7
17 17 17 16 17 17 16 16 16 15 15 15 10 4 7 3 6 5 3 2 4 0 1 5 4 3 4 3 3 4 3 5 4 5 6 7 7 4 3 3 6 5 4 7 6 2 6
17 17 17 17 16 16 16 14 15 14 13 13 6 12 15 6 6 18 24 28 20 13 2 3 3 2 2 2 1 2 2 1 5 4 2 2 7 6 7 6 5 4 4 1 6 7 6
Wind_Direction
29 27 26 22 20 18 16 14 12 10 8 7 6 4 2 0 359 358 352 333 308 301 301 304 298 303 330 328 251 262 265 166 185 205 197 171 134 150 217 211 154 214 262 237 260 92 64
23 21 19 17 15 13 11 8 6 4 2 2 0 359 357 356 354 353 353 343 314 299 304 307 298 289 55 290 303 289 225 185 193 194 190 187 202 190 261 237 170 228 266 274 84 97 113
16 15 13 11 8 7 5 3 1 358 357 356 355 353 352 351 350 348 348 344 318 294 301 302 269 204 135 243 284 277 223 220 205 192 197 228 206 138 178 287 235 277 322 25 129 126 118
10 10 8 7 5 3 1 358 356 355 353 351 349 347 346 345 344 343 343 337 316 281 287 298 182 162 251 272 276 259 231 252 234 228 241 268 243 206 182 294 0 2 46 42 156 169 175
4 3 3 2 2 0 358 356 354 351 350 349 347 343 341 340 340 337 337 332 307 259 252 156 148 184 268 298 245 239 228 224 268 245 251 264 180 72 17 69 0 5 248 256 280 184 119
360 359 359 359 358 357 355 353 350 349 347 346 345 341 338 336 336 333 333 328 282 185 131 145 244 331 274 265 251 218 227 228 254 2 5 68 52 56 35 73 208 264 343 300 245 108 78
357 357 358 356 354 352 352 352 350 347 346 344 343 339 336 333 334 328 326 249 10 346 202 201 194 247 277 287 276 261 208 181 193 65 161 359 63 242 225 197 220 223 233 260 39 106 70
357 356 355 354 353 351 350 349 348 347 345 345 343 339 334 332 333 326 348 142 119 1 299 235 243 254 266 294 317 299 189 152 112 203 57 10 249 242 224 210 219 185 242 77 81 42 86
357 356 354 353 352 351 349 347 346 345 344 343 342 340 334 330 330 340 330 272 312 325 231 290 199 192 222 156 224 250 154 144 136 155 202 181 244 22 153 317 114 42 67 63 125 71 92
356 354 353 351 351 350 349 347 345 344 342 341 340 339 336 332 331 326 294 219 336 168 43 274 226 249 167 172 276 211 182 136 158 207 232 222 278 216 9 206 129 98 182 119 134 103 165
357 355 354 352 350 350 349 347 345 343 342 340 337 336 332 334 297 281 291 321 339 120 343 208 209 183 127 151 220 235 162 66 186 218 103 265 331 113 104 48 129 165 123 84 125 123 114
358 355 353 352 351 349 349 348 346 342 341 339 334 331 327 321 279 282 307 336 122 47 256 300 150 174 118 157 265 33 128 92 176 155 304 249 297 118 126 58 58 107 77 41 54 92 72
359 356 353 352 349 347 348 348 347 343 340 339 331 324 313 280 234 231 329 35 52 161 315 243 190 146 166 178 225 186 179 172 162 109 345 325 352 359 120 92 27 68 54 359 352 4 216
357 357 354 352 350 351 350 348 348 345 341 339 329 323 301 261 218 246 334 59 175 242 258 320 275 129 176 162 230 214 147 196 218 104 103 111 356 349 350 129 138 83 131 149 209 226 266
356 356 354 352 352 353 351 351 348 347 342 341 333 325 288 284 210 202 87 116 205 213 284 336 347 138 225 199 180 144 189 206 185 168 142 130 359 327 55 95 108 161 57 166 103 24 36
353 354 354 351 353 354 353 351 351 350 343 346 333 323 283 181 150 139 86 217 225 225 355 314 261 166 183 269 153 155 179 223 214 192 142 197 99 345 21 57 29 98 154 58 15 204 270
351 352 353 350 351 352 353 353 353 354 344 350 340 348 356 159 156 54 172 227 265 276 352 328 299 197 149 140 197 191 208 284 176 105 125 127 107 271 41 58 176 29 48 54 109 129 173
351 352 353 350 349 350 352 355 355 357 353 357 348 346 42 195 54 32 164 201 256 294 203 274 250 207 174 195 58 122 164 210 193 154 116 102 122 119 176 306 271 157 158 135 121 225 132
346 348 351 349 351 351 352 355 355 356 2 323 334 272 359 339 143 283 295 285 244 239 245 242 263 208 201 186 109 107 75 348 28 88 157 181 30 63 360 355 351 109 130 99 108 84 187
345 346 348 350 352 352 353 355 355 356 357 4 0 353 327 31 43 89 359 269 279 248 261 230 203 129 102 323 73 141 106 12 13 72 73 85 106 153 183 187 176 284 299 140 125 118 194
349 352 353 350 350 350 353 356 357 356 359 339 31 332 146 337 341 352 310 324 334 347 341 345 35 99 158 151 95 108 81 97 15 4 57 96 124 139 143 163 191 226 252 217 198 207 164
345 347 349 351 351 351 352 357 359 360 6 39 34 15 347 293 296 349 4 8 336 315 284 312 358 317 165 161 165 191 135 149 175 37 76 12 149 91 348 269 181 250 265 263 222 123 77
335 336 339 344 348 351 352 357 1 7 16 18 357 349 65 296 338 48 23 324 316 329 275 231 228 114 84 253 227 202 169 140 159 141 118 99 124 85 250 346 360 323 238 237 174 150 145
325 325 333 335 343 348 352 354 359 4 15 356 327 324 15 292 326 23 331 312 305 304 250 293 38 104 12 146 98 48 50 80 96 57 112 119 95 90 176 35 254 245 285 246 114 75 231
315 320 324 330 334 339 346 349 352 357 360 354 313 330 329 293 324 302 343 311 309 306 301 274 336 334 335 31 66 58 357 61 80 44 71 99 118 96 142 180 290 292 228 171 155 220 161
312 313 316 320 328 328 335 341 345 350 354 354 322 357 295 315 248 329 313 319 329 331 328 309 318 313 69 77 75 136 182 189 179 98 58 73 68 116 144 148 214 239 280 157 110 297 165
311 312 311 313 317 321 324 328 336 343 349 345 302 5 279 278 267 20 245 290 340 12 268 306 340 343 24 84 141 157 210 176 157 159 164 76 38 149 126 187 286 243 244 323 95 237 164
312 314 313 312 314 318 320 320 326 335 343 346 309 19 359 291 279 249 317 322 337 338 279 306 350 333 20 89 141 208 165 215 125 169 174 160 149 175 99 98 278 181 68 173 202 51 143
309 309 310 312 311 312 317 315 319 321 331 341 308 314 329 227 258 291 273 262 244 239 49 309 248 270 212 84 15 92 223 101 152 207 90 169 177 180 167 206 237 224 208 183 149 143 155